TimeWEST,TemperatureF,Dew PointF,Humidity,Sea Level PressureIn,VisibilityMPH,Wind Direction,Wind SpeedMPH,Gust SpeedMPH,PrecipitationIn,Events,Conditions,WindDirDegrees,DateUTC
12:00 AM,41.0,33.8,76,29.92,6.2,WSW,5.8,-,N/A,,Partly Cloudy,240,2013-04-28 23:00:00
1:00 AM,42,33,62,29.96,6,SW,5.8,,,,Partly Cloudy,230,2013-04-29 00:00:00
1:00 AM,42.8,33.8,70,29.92,6.2,SW,5.8,-,N/A,,Scattered Clouds,230,2013-04-29 00:00:00
2:00 AM,42.8,33.8,70,29.92,6.2,SSW,5.8,-,N/A,,Scattered Clouds,200,2013-04-29 01:00:00
3:00 AM,41.0,33.8,76,29.89,6.2,WNW,4.6,-,N/A,,Scattered Clouds,300,2013-04-29 02:00:00
4:00 AM,38,38,100,29.96,6,SSW,2.3,,,,Partly Cloudy,200,2013-04-29 03:00:00
4:00 AM,39.2,33.8,81,29.89,6.2,SW,5.8,-,N/A,,Scattered Clouds,230,2013-04-29 03:00:00
5:00 AM,41.0,35.6,81,29.89,6.2,WSW,2.3,-,N/A,,Scattered Clouds,240,2013-04-29 04:00:00
6:00 AM,42.8,35.6,76,29.89,6.2,NW,2.3,-,N/A,,Mostly Cloudy,310,2013-04-29 05:00:00
7:00 AM,42,36,73,29.94,6,Calm,Calm,,,,Mostly Cloudy,,2013-04-29 06:00:00
7:00 AM,42.8,35.6,76,29.89,6.2,Calm,Calm,-,N/A,,Mostly Cloudy,0,2013-04-29 06:00:00
8:00 AM,41.0,37.4,87,29.92,5.0,SSW,4.6,-,N/A,,Mostly Cloudy,210,2013-04-29 07:00:00
9:00 AM,42.8,39.2,87,29.92,6.2,South,4.6,-,N/A,,Mostly Cloudy,170,2013-04-29 08:00:00
10:00 AM,48,39,62,29.92,6,SSE,5.8,,,,Mostly Cloudy,160,2013-04-29 09:00:00
10:00 AM,48.2,39.2,71,29.92,6.2,SSE,5.8,-,N/A,,Scattered Clouds,160,2013-04-29 09:00:00
11:00 AM,53.6,37.4,54,29.89,6.2,SW,8.1,-,N/A,,Scattered Clouds,230,2013-04-29 10:00:00
12:00 PM,53.6,33.8,47,29.89,6.2,West,6.9,-,N/A,,Mostly Cloudy,280,2013-04-29 11:00:00
1:00 PM,56,31,27,29.87,6,WSW,9.2,,,,Mostly Cloudy,250,2013-04-29 12:00:00
1:00 PM,57.2,32.0,38,29.89,6.2,WSW,9.2,-,N/A,,Mostly Cloudy,250,2013-04-29 12:00:00
2:00 PM,57.2,30.2,36,29.86,6.2,West,11.5,-,N/A,,Mostly Cloudy,270,2013-04-29 13:00:00
3:00 PM,60.8,28.4,29,29.86,6.2,WSW,16.1,-,N/A,,Mostly Cloudy,250,2013-04-29 14:00:00
4:00 PM,58,31,23,29.82,6,West,10.4,,,,Mostly Cloudy,260,2013-04-29 15:00:00
4:00 PM,59.0,32.0,36,29.83,6.2,West,10.4,-,N/A,,Mostly Cloudy,260,2013-04-29 15:00:00
5:00 PM,59.0,30.2,34,29.83,6.2,West,8.1,-,N/A,,Mostly Cloudy,270,2013-04-29 16:00:00
6:00 PM,59.0,32.0,36,29.83,6.2,West,11.5,-,N/A,,Mostly Cloudy,270,2013-04-29 17:00:00
7:00 PM,56,36,35,29.81,6,West,13.8,,,,Mostly Cloudy,280,2013-04-29 18:00:00
7:00 PM,57.2,35.6,44,29.83,6.2,West,13.8,-,N/A,,Mostly Cloudy,280,2013-04-29 18:00:00
8:00 PM,53.6,35.6,51,29.83,6.2,West,12.7,-,N/A,,Mostly Cloudy,280,2013-04-29 19:00:00
9:00 PM,50.0,37.4,62,29.86,6.2,West,6.9,-,N/A,,Mostly Cloudy,270,2013-04-29 20:00:00
10:00 PM,49,38,55,29.90,6,West,9.2,,,,Mostly Cloudy,260,2013-04-29 21:00:00
10:00 PM,50.0,37.4,62,29.89,6.2,West,9.2,-,N/A,,Mostly Cloudy,260,2013-04-29 21:00:00
11:00 PM,48.2,39.2,71,29.89,6.2,West,8.1,-,N/A,,Mostly Cloudy,260,2013-04-29 22:00:00